Regional Weather Roundup
Issued by NWS Goodland, KS

Home | Current Version | Previous Version | Graphics & Text | Print | Product List | Glossary On
Versions: 1 2 3 4 5 6 7 8 9 10 11 12 13 14 15 16 17 18 19 20 21 22 23 24 25 26 27 28 29 30 31 32 33 34 35 36 37 38 39 40 41 42 43 44 45 46 47 48 49 50
000
ASUS43 KGLD 270208
RWRGLD

GOODLAND FORECAST AREA HOURLY WEATHER ROUNDUP
NATIONAL WEATHER SERVICE GOODLAND KS
800 PM MDT TUE AUG 26 2014

...OFFICIAL OBSERVATIONS...

CITY           SKY/WX    TMP DP  RH WIND       PRES   REMARKS
GOODLAND KS    CLOUDY    74  64  71 E5        30.12S
HILL CITY KS   PTCLDY    78  64  61 E6        30.07R
IMPERIAL NEB   MOCLDY    71  64  78 E6        30.12R
MCCOOK NEB     PTCLDY    74  66  76 NE7       30.09S
AKRON CO       CLOUDY    70  62  76 S9        30.17S
BURLINGTON CO  CLOUDY    66  60  81 S23G36    30.19R THUNDER
LIMON CO       CLOUDY    68  59  73 S5        30.21S
$$

...UNOFFICIAL OBSERVATIONS...

CITY           SKY/WX    TMP DP  RH WIND       PRES   REMARKS
COLBY KS       CLEAR     75  66  73 E6        30.10F
GOVE KS          N/A     79  32  18 CALM        N/A
NORTON KS      PTCLDY    75  61  60 E3        30.07S
SHARON SPRINGS   N/A     71  63  77 SW12G20     N/A
WAKEENEY KS      N/A     78  58  49 MISG        N/A
KIT CARSON CO    N/A     68  60  76 MISG        N/A
YUMA CO          N/A     71  63  77 CALM        N/A
$$



USA.gov is the U.S. government's official web portal to all federal, state and local government web resources and services.